Tampa, FL

4:12 AM EST on November 14, 2019 (GMT -0500)
Tampa International

Weather History for KTPA - October, 2019

Change the Weather History Date:

Monday, October 21, 2019

  Actual Average Record
Temperature  
Mean Temperature 80 °F 75 °F  
Max Temperature 86 °F 83 °F 91 °F (1990)
Min Temperature 74 °F 67 °F 40 °F (1964)
Degree Days  
Heating Degree Days 0 0  
Month to date heating degree days 0 0  
Since 1 July heating degree days 0 0  
Cooling Degree Days 15 10  
Month to date cooling degree days 338 261  
Year to date cooling degree days 3835 3277  
Growing Degree Days 30 (Base 50)    
Moisture  
Dew Point 73 °F    
Average Humidity 84    
Maximum Humidity 94    
Minimum Humidity 74    
Precipitation  
Precipitation 0.24 in 0.06 in 0.67 in (2007)
Month to date precipitation 6.72 1.73  
Year to date precipitation 55.49 41.75  
Sea Level Pressure  
Sea Level Pressure 29.97 in    
Wind  
Wind Speed 6 mph (SSE)    
Max Wind Speed 20 mph    
Max Gust Speed 25 mph    
Visibility 9 miles    
Events Rain , Thunderstorm    
T = Trace of Precipitation, MM = Missing Value Source: NWS Daily Summary

Daily Weather History Graph

Daily Weather History Graph

Search for Another Location

Airport or City:

Astronomy

Oct. 21, 2019 Rise Set
Actual Time 7:33 AM EDT 6:55 PM EDT
Civil Twilight 7:10 AM EDT 7:18 PM EDT
Nautical Twilight 6:42 AM EDT 7:46 PM EDT
Astronomical Twilight 6:15 AM EDT 8:13 PM EDT
Moon 12:23 AM EDT (10/21) 2:33 PM EDT (10/21)
Length of Visible Light 12h 08m
Length of Day
11h 21m
Waning Gibbous, 48% of the Moon is Illuminated
Oct 21
Waning Gibbous
Oct 27
New
Nov 4
First Quarter
Nov 12
Full
Nov 19
Last Quarter

Hourly Weather History & Observations

Time (EDT) Temp. Heat Index Dew Point Humidity Pressure Visibility Wind Dir Wind Speed Gust Speed Precip Events Conditions
12:53 AM 75.9 °F - 68.0 °F 76% 29.97 in 10.0 mi NE 4.6 mph - N/A   Mostly Cloudy
1:53 AM 75.9 °F - 66.9 °F 74% 29.96 in 10.0 mi ENE 3.5 mph - N/A   Overcast
2:53 AM 75.9 °F - 66.9 °F 74% 29.95 in 10.0 mi NE 3.5 mph - N/A   Overcast
3:53 AM 75.9 °F - 66.9 °F 74% 29.95 in 10.0 mi Calm Calm - N/A   Overcast
4:53 AM 75.0 °F - 68.0 °F 79% 29.95 in 10.0 mi ENE 4.6 mph - N/A   Overcast
5:53 AM 75.0 °F - 68.0 °F 79% 29.95 in 10.0 mi NE 5.8 mph - N/A   Overcast
6:53 AM 75.9 °F - 68.0 °F 76% 29.95 in 10.0 mi East 5.8 mph - N/A   Overcast
7:53 AM 75.9 °F - 69.1 °F 79% 29.95 in 10.0 mi ENE 5.8 mph - N/A   Mostly Cloudy
8:06 AM 75.9 °F - 69.1 °F 79% 29.96 in 10.0 mi ENE 4.6 mph - N/A   Overcast
8:07 AM 75.9 °F - 69.1 °F 79% 29.96 in 10.0 mi ENE 5.8 mph - N/A   Mostly Cloudy
8:53 AM 75.9 °F - 71.1 °F 85% 29.97 in 10.0 mi Variable 3.5 mph - 0.02 in   Overcast
8:59 AM 75.9 °F - 71.1 °F 85% 29.97 in 10.0 mi ENE 4.6 mph - N/A   Overcast
9:13 AM 75.9 °F - 71.1 °F 85% 29.97 in 4.0 mi Variable 3.5 mph - 0.03 in Rain Light Rain
9:38 AM 75.0 °F - 73.0 °F 94% 29.98 in 5.0 mi ENE 4.6 mph - 0.11 in Rain Light Rain
9:53 AM 75.0 °F - 73.0 °F 94% 29.99 in 3.0 mi West 6.9 mph - 0.13 in Rain Light Rain
9:56 AM 75.0 °F - 73.0 °F 94% 29.98 in 2.5 mi WNW 3.5 mph - 0.01 in Rain Rain
10:05 AM 75.9 °F - 73.9 °F 94% 29.98 in 3.0 mi South 3.5 mph - 0.03 in Rain Light Rain
10:53 AM 78.1 °F - 75.9 °F 93% 29.99 in 10.0 mi South 6.9 mph - 0.03 in Rain Light Rain
11:01 AM 78.1 °F - 75.0 °F 90% 30.00 in 8.0 mi South 9.2 mph - 0.00 in Rain Light Rain
11:44 AM 78.1 °F - 73.9 °F 87% 29.99 in 10.0 mi South 3.5 mph - 0.06 in   Mostly Cloudy
11:53 AM 78.1 °F - 75.0 °F 90% 30.00 in 10.0 mi Calm Calm - 0.06 in   Mostly Cloudy
12:53 PM 81.0 °F 87.3 °F 75.9 °F 85% 30.00 in 10.0 mi SSW 4.6 mph - N/A   Mostly Cloudy
1:53 PM 86.0 °F 98.3 °F 78.1 °F 77% 29.98 in 10.0 mi South 12.7 mph - N/A   Mostly Cloudy
2:24 PM 84.0 °F 93.7 °F 77.0 °F 79% 29.96 in 10.0 mi South 13.8 mph - N/A Thunderstorm Thunderstorm
2:53 PM 82.0 °F 89.4 °F 75.9 °F 82% 29.97 in 10.0 mi SW 8.1 mph - 0.00 in Thunderstorm Thunderstorm
3:27 PM 82.0 °F 90.2 °F 77.0 °F 85% 29.96 in 10.0 mi SSW 5.8 mph - N/A   Mostly Cloudy
3:53 PM 84.9 °F 96.6 °F 78.1 °F 80% 29.97 in 10.0 mi South 11.5 mph - N/A   Mostly Cloudy
4:53 PM 80.1 °F 84.5 °F 73.9 °F 81% 29.96 in 10.0 mi South 11.5 mph - 0.00 in   Mostly Cloudy
5:53 PM 82.0 °F 88.6 °F 75.0 °F 79% 29.95 in 10.0 mi South 8.1 mph - N/A   Mostly Cloudy
6:53 PM 81.0 °F 87.9 °F 77.0 °F 88% 29.97 in 10.0 mi South 5.8 mph - N/A   Mostly Cloudy
7:53 PM 81.0 °F 88.6 °F 78.1 °F 91% 29.98 in 10.0 mi South 4.6 mph - N/A   Mostly Cloudy
8:53 PM 81.0 °F 87.9 °F 77.0 °F 88% 29.99 in 10.0 mi South 4.6 mph - N/A   Scattered Clouds
9:53 PM 80.1 °F 85.8 °F 77.0 °F 90% 29.99 in 10.0 mi SSW 4.6 mph - N/A   Scattered Clouds
10:53 PM 80.1 °F 86.4 °F 78.1 °F 94% 30.01 in 9.0 mi South 3.5 mph - N/A   Scattered Clouds
11:51 PM 80.6 °F 87.1 °F 77.0 °F 89% 30.01 in 9.0 mi SSE 3.5 mph - N/A   Overcast
11:53 PM 80.1 °F 85.8 °F 77.0 °F 90% 30.01 in 9.0 mi SSE 3.5 mph - N/A   Overcast